User: anonymous   Login
Location: Ford County Road and Bridge Department
(37.7686°N, 99.9762°W)
Time: 15:50:19
(UTC+00:00)
Language:

Cosmos 1242 Rocket - Orbit

View from above orbital plane
View from above orbital plane
View from above satellite
View from above satellite

Ground track
Ground track

The orbit data is extracted from the following two-line orbital elements,

1 12155U 81008B   20095.51252440  .00000964  00000-0  29204-4 0  9990
2 12155  81.1593 288.1238 0029542  83.5644 276.8956 15.32632710148968
Epoch (UTC): 04 April 2020 12:18:02
Eccentricity: 0.0029542
inclination: 81.1593°
perigee height: 448 km
apogee height: 488 km
right ascension of ascending node: 288.1238°
argument of perigee: 83.5644°
revolutions per day: 15.32632710
mean anomaly at epoch: 276.8956°
orbit number at epoch: 14896

The dashed part of the orbit path shows where the satellite is in the earth's shadow,  

DLR